,,PA_Meas_PMT16A,,PR_Meas_QMR101_102,,RH_Meas_QMH101,,SR_Meas_QMS101,,TA_Meas_QMH101,,GenWind,,GenWind,
time,status,PA,status,PR,status,RH,status,SR,status,TA,status,DirAvg,status,SpdAvg,
2010-12-27, 00:00:05,VALID,916.707,VALID,0,VALID,97.0461,VALID,0,VALID,19.4478,VALID,18,VALID,0.325391,
2010-12-27, 00:01:05,VALID,916.691,VALID,0,VALID,97.0918,VALID,0,VALID,19.4688,VALID,18,VALID,0.511719,
2010-12-27, 00:02:05,VALID,916.673,VALID,0,VALID,97.0994,VALID,0,VALID,19.5078,VALID,18,VALID,0.341406,
2010-12-27, 00:03:05,VALID,916.67,VALID,0,VALID,96.9851,VALID,0,VALID,19.4688,VALID,18,VALID,0.423828,
2010-12-27, 00:04:05,VALID,916.676,VALID,0,VALID,97.1147,VALID,0,VALID,19.4673,VALID,18,VALID,0.268359,
2010-12-27, 00:05:05,VALID,916.688,VALID,0,VALID,97.1909,VALID,0,VALID,19.5663,VALID,18,VALID,0.714453,
2010-12-27, 00:06:05,VALID,916.658,VALID,0,VALID,97.1376,VALID,0,VALID,19.6053,VALID,18,VALID,0.539453,
2010-12-27, 00:07:05,VALID,916.684,VALID,0,VALID,97.1833,VALID,0,VALID,19.6443,VALID,18,VALID,0.515234,
2010-12-27, 00:08:05,VALID,916.666,VALID,0,VALID,97.1147,VALID,0,VALID,19.6443,VALID,18,VALID,0.389062,
2010-12-27, 00:09:05,VALID,916.631,VALID,0,VALID,97.1452,VALID,0,VALID,19.6428,VALID,18,VALID,0.718359,
2010-12-27, 00:10:05,VALID,916.66,VALID,0,VALID,97.1147,VALID,0,VALID,19.6833,VALID,18,VALID,0.427344,
2010-12-27, 00:11:05,VALID,916.633,VALID,0,VALID,97.1147,VALID,0,VALID,19.6623,VALID,18,VALID,0.538281,
2010-12-27, 00:12:05,VALID,916.645,VALID,0.2,VALID,97.0232,VALID,0,VALID,19.6443,VALID,18,VALID,0.494141,
2010-12-27, 00:13:05,VALID,916.656,VALID,0,VALID,97.008,VALID,0,VALID,19.5843,VALID,18,VALID,0.689844,
2010-12-27, 00:14:05,VALID,916.652,VALID,0,VALID,97.0537,VALID,0,VALID,19.6248,VALID,18,VALID,0.482422,
2010-12-27, 00:15:05,VALID,916.638,VALID,0,VALID,97.0613,VALID,0,VALID,19.5648,VALID,18,VALID,0.944141,
2010-12-27, 00:16:05,VALID,916.598,VALID,0,VALID,97.0461,VALID,0.107441,VALID,19.5648,VALID,18,VALID,0.732031,
2010-12-27, 00:17:05,VALID,916.65,VALID,0,VALID,97.069,VALID,0,VALID,19.5858,VALID,18,VALID,0.928125,
2010-12-27, 00:18:05,VALID,916.627,VALID,0,VALID,97.0766,VALID,0,VALID,19.5663,VALID,18,VALID,0.7625,
2010-12-27, 00:19:05,VALID,916.594,VALID,0,VALID,97.0994,VALID,0,VALID,19.5258,VALID,18,VALID,0.848437,
2010-12-27, 00:20:05,VALID,916.616,VALID,0,VALID,97.0461,VALID,0,VALID,19.5468,VALID,18,VALID,0.701172,
2010-12-27, 00:21:05,VALID,916.588,VALID,0,VALID,97.1528,VALID,0,VALID,19.5453,VALID,18,VALID,0.528906,
2010-12-27, 00:22:05,VALID,916.597,VALID,0,VALID,97.0537,VALID,0,VALID,19.5468,VALID,334,VALID,1.33359,
2010-12-27, 00:23:05,VALID,916.599,VALID,0,VALID,96.9851,VALID,0,VALID,19.4673,VALID,297,VALID,1.02227,
2010-12-27, 00:24:05,VALID,916.597,VALID,0,VALID,97.1071,VALID,0,VALID,19.4868,VALID,46,VALID,1.17188,
2010-12-27, 00:25:05,VALID,916.616,VALID,0,VALID,97.0613,VALID,0,VALID,19.5078,VALID,40,VALID,1.18828,
2010-12-27, 00:26:05,VALID,916.614,VALID,0,VALID,97.0385,VALID,0,VALID,19.4868,VALID,1,VALID,1.15352,
2010-12-27, 00:27:05,VALID,916.615,VALID,0,VALID,97.1376,VALID,0,VALID,19.5468,VALID,1,VALID,0.610937,
2010-12-27, 00:28:05,VALID,916.588,VALID,0,VALID,97.0385,VALID,0,VALID,19.4868,VALID,1,VALID,0.438672,
2010-12-27, 00:29:05,VALID,916.616,VALID,0,VALID,97.0537,VALID,0,VALID,19.4883,VALID,1,VALID,0.244141,
2010-12-27, 00:30:05,VALID,916.579,VALID,0,VALID,97.069,VALID,0,VALID,19.4883,VALID,1,VALID,0.00234375,
2010-12-27, 00:31:05,VALID,916.58,VALID,0,VALID,97.0766,VALID,0,VALID,19.4868,VALID,1,VALID,0.21875,
2010-12-27, 00:32:05,VALID,916.573,VALID,0,VALID,97.1299,VALID,0,VALID,19.5063,VALID,1,VALID,0.823828,
2010-12-27, 00:33:05,VALID,916.576,VALID,0,VALID,97.1299,VALID,0,VALID,19.5063,VALID,1,VALID,1.08555,
2010-12-27, 00:34:05,VALID,916.559,VALID,0,VALID,97.0918,VALID,0,VALID,19.5258,VALID,1,VALID,1.05273,
2010-12-27, 00:35:05,VALID,916.591,VALID,0,VALID,97.1147,VALID,0,VALID,19.5453,VALID,1,VALID,0.666016,
2010-12-27, 00:36:05,VALID,916.552,VALID,0.2,VALID,97.1223,VALID,0.107441,VALID,19.5453,VALID,1,VALID,0.846484,
2010-12-27, 00:37:05,VALID,916.539,VALID,0,VALID,97.1681,VALID,0,VALID,19.5858,VALID,1,VALID,0.290625,
2010-12-27, 00:38:05,VALID,916.528,VALID,0,VALID,97.1147,VALID,0,VALID,19.6053,VALID,1,VALID,1.02109,
2010-12-27, 00:39:05,VALID,916.543,VALID,0,VALID,97.0613,VALID,0,VALID,19.5453,VALID,1,VALID,1.23711,
2010-12-27, 00:40:05,VALID,916.528,VALID,0,VALID,97.0766,VALID,0.107441,VALID,19.5453,VALID,1,VALID,0.982422,
2010-12-27, 00:41:05,VALID,916.525,VALID,0,VALID,97.1528,VALID,0.107441,VALID,19.5648,VALID,1,VALID,1.02148,
2010-12-27, 00:42:05,VALID,916.504,VALID,0,VALID,97.1223,VALID,0.107441,VALID,19.5843,VALID,1,VALID,0.673437,
2010-12-27, 00:43:05,VALID,916.496,VALID,0,VALID,97.0766,VALID,0,VALID,19.5858,VALID,1,VALID,1.1918,
2010-12-27, 00:44:05,VALID,916.506,VALID,0,VALID,96.9927,VALID,0,VALID,19.5273,VALID,1,VALID,0.770703,
2010-12-27, 00:45:05,VALID,916.493,VALID,0,VALID,96.9851,VALID,0,VALID,19.4883,VALID,5,VALID,1.03437,
2010-12-27, 00:46:05,VALID,916.494,VALID,0,VALID,96.9241,VALID,0,VALID,19.4088,VALID,323,VALID,0.805859,
2010-12-27, 00:47:05,VALID,916.479,VALID,0,VALID,96.9851,VALID,0,VALID,19.4103,VALID,19,VALID,1.48633,
2010-12-27, 00:48:05,VALID,916.478,VALID,0,VALID,97.0385,VALID,0,VALID,19.4298,VALID,25,VALID,1.51445,
2010-12-27, 00:49:05,VALID,916.474,VALID,0,VALID,97.0461,VALID,0,VALID,19.4283,VALID,26,VALID,1.64883,
2010-12-27, 00:50:05,VALID,916.465,VALID,0,VALID,97.0766,VALID,0,VALID,19.4283,VALID,25,VALID,1.31445,
2010-12-27, 00:51:05,VALID,916.445,VALID,0,VALID,97.0461,VALID,0,VALID,19.4493,VALID,26,VALID,0.774609,
2010-12-27, 00:52:05,VALID,916.461,VALID,0,VALID,97.0232,VALID,0,VALID,19.4298,VALID,360,VALID,0.98125,
2010-12-27, 00:53:05,VALID,916.408,VALID,0,VALID,96.9927,VALID,0,VALID,19.4298,VALID,360,VALID,0.599219,
2010-12-27, 00:54:05,VALID,916.411,VALID,0,VALID,97.0232,VALID,0,VALID,19.4088,VALID,360,VALID,0.358984,
2010-12-27, 00:55:05,VALID,916.392,VALID,0,VALID,97.0385,VALID,0,VALID,19.4103,VALID,360,VALID,0.570703,
2010-12-27, 00:56:05,VALID,916.429,VALID,0.2,VALID,97.0994,VALID,0,VALID,19.4088,VALID,360,VALID,0.68125,
2010-12-27, 00:57:05,VALID,916.415,VALID,0.2,VALID,97.0461,VALID,0.107441,VALID,19.4298,VALID,360,VALID,0.766016,
2010-12-27, 00:58:05,VALID,916.395,VALID,0.2,VALID,97.0918,VALID,0,VALID,19.4088,VALID,360,VALID,0.920703,
2010-12-27, 00:59:05,VALID,916.35,VALID,0.2,VALID,97.0308,VALID,0.107441,VALID,19.4103,VALID,28,VALID,0.779688,
2010-12-27, 01:00:05,VALID,916.381,VALID,0.4,VALID,97.0461,VALID,0,VALID,19.3698,VALID,326,VALID,1.00703,
2010-12-27, 01:01:05,VALID,916.324,VALID,0.2,VALID,97.0308,VALID,0.107441,VALID,19.3698,VALID,326,VALID,0.829687,
2010-12-27, 01:02:05,VALID,916.322,VALID,0.2,VALID,97.0613,VALID,0.107441,VALID,19.3893,VALID,326,VALID,0.923437,
2010-12-27, 01:03:05,VALID,916.321,VALID,0.2,VALID,97.069,VALID,0,VALID,19.3893,VALID,326,VALID,0.4625,
2010-12-27, 01:04:05,VALID,916.304,VALID,0.4,VALID,97.0308,VALID,0,VALID,19.4103,VALID,329,VALID,1.11641,
2010-12-27, 01:05:05,VALID,916.27,VALID,0.4,VALID,96.9775,VALID,0.107441,VALID,19.3518,VALID,5,VALID,1.18789,
2010-12-27, 01:06:05,VALID,916.224,VALID,0.2,VALID,96.9775,VALID,0,VALID,19.3323,VALID,46,VALID,0.880078,
2010-12-27, 01:07:05,VALID,916.257,VALID,0.2,VALID,97.0918,VALID,0,VALID,19.3713,VALID,45,VALID,1.06055,
2010-12-27, 01:08:05,VALID,916.265,VALID,0.2,VALID,97.0385,VALID,0,VALID,19.3308,VALID,38,VALID,1.7168,
2010-12-27, 01:09:05,VALID,916.242,VALID,0.2,VALID,97.0232,VALID,0,VALID,19.3323,VALID,332,VALID,0.904688,
2010-12-27, 01:10:05,VALID,916.232,VALID,0,VALID,97.0308,VALID,0.107441,VALID,19.3113,VALID,40,VALID,1.52656,
2010-12-27, 01:11:05,VALID,916.245,VALID,0.2,VALID,97.0156,VALID,0,VALID,19.2918,VALID,20,VALID,0.994141,
2010-12-27, 01:12:05,VALID,916.237,VALID,0,VALID,96.9851,VALID,0,VALID,19.2933,VALID,19,VALID,1.45742,
2010-12-27, 01:13:05,VALID,916.206,VALID,0.2,VALID,97.0918,VALID,0,VALID,19.3128,VALID,20,VALID,0.432031,
2010-12-27, 01:14:05,VALID,916.198,VALID,0,VALID,97.008,VALID,0,VALID,19.2528,VALID,22,VALID,1.8293,
2010-12-27, 01:15:05,VALID,916.186,VALID,0,VALID,96.9775,VALID,0,VALID,19.2738,VALID,20,VALID,2.10859,
2010-12-27, 01:16:05,VALID,916.167,VALID,0,VALID,96.9317,VALID,0,VALID,19.1763,VALID,353,VALID,1.35195,
2010-12-27, 01:17:05,VALID,916.212,VALID,0.2,VALID,96.9012,VALID,0,VALID,19.1373,VALID,334,VALID,1.07578,
2010-12-27, 01:18:05,VALID,916.167,VALID,0,VALID,96.9241,VALID,0,VALID,19.1178,VALID,354,VALID,1.39102,
2010-12-27, 01:19:05,VALID,916.18,VALID,0,VALID,97.0537,VALID,0,VALID,19.1373,VALID,23,VALID,1.55469,
2010-12-27, 01:20:05,VALID,916.154,VALID,0.2,VALID,97.0385,VALID,0,VALID,19.1568,VALID,342,VALID,1.84297,
2010-12-27, 01:21:05,VALID,916.095,VALID,0,VALID,96.947,VALID,0,VALID,19.0983,VALID,22,VALID,2.32539,
2010-12-27, 01:22:05,VALID,916.096,VALID,0,VALID,96.9546,VALID,0,VALID,19.0593,VALID,310,VALID,1.16367,
2010-12-27, 01:23:05,VALID,916.064,VALID,0,VALID,97.0232,VALID,0,VALID,19.0788,VALID,21,VALID,1.72656,
2010-12-27, 01:24:05,VALID,916.046,VALID,0.2,VALID,96.9317,VALID,0,VALID,19.0398,VALID,13,VALID,1.92969,
2010-12-27, 01:25:05,VALID,916.013,VALID,0,VALID,96.9851,VALID,0,VALID,19.0203,VALID,329,VALID,1.64102,
2010-12-27, 01:26:05,VALID,915.988,VALID,0.2,VALID,96.9775,VALID,0,VALID,19.0008,VALID,14,VALID,1.75703,
2010-12-27, 01:27:05,VALID,915.987,VALID,0,VALID,96.9546,VALID,0,VALID,18.9814,VALID,23,VALID,2.4082,
2010-12-27, 01:28:05,VALID,916.002,VALID,0,VALID,97.1223,VALID,0,VALID,19.0008,VALID,23,VALID,1.32617,
2010-12-27, 01:29:05,VALID,915.971,VALID,0.2,VALID,97.1147,VALID,0,VALID,19.0398,VALID,23,VALID,1.13516,
2010-12-27, 01:30:05,VALID,915.939,VALID,0,VALID,97.1223,VALID,0,VALID,19.0384,VALID,7,VALID,0.778516,
2010-12-27, 01:31:05,VALID,915.943,VALID,0,VALID,97.0308,VALID,0,VALID,19.0008,VALID,7,VALID,0.885156,
2010-12-27, 01:32:05,VALID,915.936,VALID,0.2,VALID,97.008,VALID,0,VALID,18.9814,VALID,355,VALID,1.60391,
2010-12-27, 01:33:05,VALID,915.903,VALID,0,VALID,97.0232,VALID,0,VALID,18.9424,VALID,6,VALID,1.59063,
2010-12-27, 01:34:05,VALID,915.895,VALID,0.2,VALID,97.069,VALID,0,VALID,18.9214,VALID,315,VALID,1.71602,
2010-12-27, 01:35:05,VALID,915.888,VALID,0,VALID,97.0461,VALID,0,VALID,18.9034,VALID,12,VALID,1.25898,
2010-12-27, 01:36:05,VALID,915.877,VALID,0,VALID,97.1147,VALID,0,VALID,18.9229,VALID,27,VALID,1.57813,
2010-12-27, 01:37:05,VALID,915.834,VALID,0.2,VALID,97.0537,VALID,0,VALID,18.8853,VALID,4,VALID,1.74297,
2010-12-27, 01:38:05,VALID,915.845,VALID,0,VALID,97.0842,VALID,0,VALID,18.8449,VALID,27,VALID,1.67461,
2010-12-27, 01:39:05,VALID,915.841,VALID,0,VALID,97.0918,VALID,0,VALID,18.8449,VALID,356,VALID,1.7418,
2010-12-27, 01:40:05,VALID,915.82,VALID,0.2,VALID,97.1833,VALID,0,VALID,18.9048,VALID,27,VALID,2.28945,
2010-12-27, 01:41:05,VALID,915.815,VALID,0,VALID,97.1528,VALID,0,VALID,18.8644,VALID,3,VALID,1.06367,
2010-12-27, 01:42:05,VALID,915.839,VALID,0.2,VALID,97.1071,VALID,0,VALID,18.8449,VALID,342,VALID,1.89609,
2010-12-27, 01:43:05,VALID,915.795,VALID,0,VALID,97.1452,VALID,0,VALID,18.8254,VALID,327,VALID,1.40234,
2010-12-27, 01:44:05,VALID,915.779,VALID,0.2,VALID,97.1299,VALID,0,VALID,18.8254,VALID,318,VALID,1.01289,
2010-12-27, 01:45:05,VALID,915.771,VALID,0,VALID,97.1223,VALID,0,VALID,18.7864,VALID,1,VALID,2.06523,
2010-12-27, 01:46:05,VALID,915.779,VALID,0,VALID,97.1604,VALID,0,VALID,18.7864,VALID,18,VALID,1.77891,
2010-12-27, 01:47:04,VALID,915.765,VALID,0,VALID,97.1452,VALID,0,VALID,18.7474,VALID,1,VALID,1.49492,
2010-12-27, 01:48:04,VALID,915.748,VALID,0.2,VALID,97.1376,VALID,0,VALID,18.7279,VALID,358,VALID,1.66719,
2010-12-27, 01:49:04,VALID,915.739,VALID,0,VALID,97.1909,VALID,0,VALID,18.7279,VALID,29,VALID,1.60859,
2010-12-27, 01:50:04,VALID,915.732,VALID,0,VALID,97.1833,VALID,0,VALID,18.7084,VALID,31,VALID,1.5,
2010-12-27, 01:51:04,VALID,915.681,VALID,0,VALID,97.1757,VALID,0,VALID,18.7279,VALID,33,VALID,1.32813,
2010-12-27, 01:52:04,VALID,915.695,VALID,0,VALID,97.229,VALID,0,VALID,18.7279,VALID,33,VALID,1.06523,
2010-12-27, 01:53:04,VALID,915.668,VALID,0,VALID,97.1833,VALID,0,VALID,18.7084,VALID,14,VALID,1.30625,
2010-12-27, 01:54:04,VALID,915.633,VALID,0,VALID,97.1604,VALID,0,VALID,18.6694,VALID,14,VALID,0.940234,
2010-12-27, 01:55:04,VALID,915.605,VALID,0.2,VALID,97.3053,VALID,0,VALID,18.7084,VALID,14,VALID,0.876172,
2010-12-27, 01:56:04,VALID,915.593,VALID,0,VALID,97.3358,VALID,0,VALID,18.7669,VALID,14,VALID,0.262891,
2010-12-27, 01:57:04,VALID,915.587,VALID,0,VALID,97.3739,VALID,0,VALID,18.8059,VALID,14,VALID,0.506641,
2010-12-27, 01:58:04,VALID,915.593,VALID,0,VALID,97.3358,VALID,0,VALID,18.8254,VALID,14,VALID,0.670703,
2010-12-27, 01:59:04,VALID,915.549,VALID,0,VALID,97.3129,VALID,0,VALID,18.8449,VALID,14,VALID,1.14688,
2010-12-27, 02:00:04,VALID,915.538,VALID,0,VALID,97.2214,VALID,0,VALID,18.8059,VALID,14,VALID,1.05781,
2010-12-27, 02:01:04,VALID,915.53,VALID,0.2,VALID,97.1833,VALID,0,VALID,18.7683,VALID,14,VALID,1.13008,
2010-12-27, 02:02:04,VALID,915.544,VALID,0,VALID,97.2367,VALID,0,VALID,18.7474,VALID,14,VALID,1.28359,
2010-12-27, 02:03:04,VALID,915.525,VALID,0,VALID,97.1528,VALID,0,VALID,18.6889,VALID,22,VALID,1.90703,
2010-12-27, 02:04:04,VALID,915.544,VALID,0,VALID,97.1147,VALID,0,VALID,18.6109,VALID,19,VALID,1.2375,
2010-12-27, 02:05:04,VALID,915.528,VALID,0,VALID,97.2138,VALID,0,VALID,18.6109,VALID,27,VALID,1.40586,
2010-12-27, 02:06:04,VALID,915.566,VALID,0,VALID,97.2824,VALID,0,VALID,18.6304,VALID,27,VALID,1.24922,
2010-12-27, 02:07:04,VALID,915.559,VALID,0,VALID,97.2367,VALID,0,VALID,18.6304,VALID,27,VALID,0.730469,
2010-12-27, 02:08:04,VALID,915.547,VALID,0,VALID,97.2138,VALID,0,VALID,18.5914,VALID,27,VALID,0.448047,
2010-12-27, 02:09:04,VALID,915.515,VALID,0,VALID,97.2214,VALID,0,VALID,18.572,VALID,26,VALID,0.668359,
2010-12-27, 02:10:04,VALID,915.532,VALID,0,VALID,97.1833,VALID,0,VALID,18.533,VALID,26,VALID,0.829297,
2010-12-27, 02:11:04,VALID,915.54,VALID,0,VALID,97.2214,VALID,0,VALID,18.5135,VALID,26,VALID,0.613281,
2010-12-27, 02:12:04,VALID,915.526,VALID,0,VALID,97.2977,VALID,0,VALID,18.533,VALID,26,VALID,0.530078,
2010-12-27, 02:13:04,VALID,915.503,VALID,0,VALID,97.3586,VALID,0,VALID,18.572,VALID,27,VALID,0.544141,
2010-12-27, 02:14:04,VALID,915.491,VALID,0,VALID,97.2977,VALID,0,VALID,18.5525,VALID,26,VALID,0.860156,
2010-12-27, 02:15:04,VALID,915.511,VALID,0,VALID,97.3586,VALID,0,VALID,18.59,VALID,344,VALID,0.997266,
2010-12-27, 02:16:04,VALID,915.477,VALID,0,VALID,97.2977,VALID,0,VALID,18.5705,VALID,19,VALID,1.22109,
2010-12-27, 02:17:04,VALID,915.47,VALID,0,VALID,97.2138,VALID,0,VALID,18.533,VALID,357,VALID,1.32852,
2010-12-27, 02:18:04,VALID,915.468,VALID,0,VALID,97.2367,VALID,0,VALID,18.533,VALID,5,VALID,0.908203,
2010-12-27, 02:19:04,VALID,915.454,VALID,0,VALID,97.3053,VALID,0,VALID,18.5316,VALID,4,VALID,0.995313,
2010-12-27, 02:20:04,VALID,915.438,VALID,0,VALID,97.2977,VALID,0,VALID,18.5511,VALID,5,VALID,1.19258,
2010-12-27, 02:21:04,VALID,915.421,VALID,0,VALID,97.2672,VALID,0.107441,VALID,18.5525,VALID,4,VALID,1.17539,
2010-12-27, 02:22:04,VALID,915.395,VALID,0,VALID,97.2062,VALID,0,VALID,18.5121,VALID,5,VALID,1.26953,
2010-12-27, 02:23:04,VALID,915.39,VALID,0,VALID,97.2977,VALID,0.107441,VALID,18.5121,VALID,4,VALID,0.830859,
2010-12-27, 02:24:04,VALID,915.367,VALID,0,VALID,97.2595,VALID,0.107441,VALID,18.5121,VALID,4,VALID,0.656641,
2010-12-27, 02:25:04,VALID,915.339,VALID,0,VALID,97.2748,VALID,0,VALID,18.533,VALID,4,VALID,0.844141,
2010-12-27, 02:26:04,VALID,915.285,VALID,0,VALID,97.3129,VALID,0,VALID,18.5316,VALID,4,VALID,0.767578,
2010-12-27, 02:27:04,VALID,915.279,VALID,0,VALID,97.1986,VALID,0.107441,VALID,18.5121,VALID,4,VALID,1.02695,
2010-12-27, 02:28:04,VALID,915.263,VALID,0,VALID,97.2672,VALID,0,VALID,18.5121,VALID,4,VALID,0.674219,
2010-12-27, 02:29:04,VALID,915.244,VALID,0,VALID,97.2595,VALID,0.107441,VALID,18.572,VALID,4,VALID,0.30625,
2010-12-27, 02:30:04,VALID,915.266,VALID,0,VALID,97.3205,VALID,0,VALID,18.5914,VALID,4,VALID,0.349609,
2010-12-27, 02:31:04,VALID,915.233,VALID,0,VALID,97.2748,VALID,0,VALID,18.5914,VALID,4,VALID,0.523438,
2010-12-27, 02:32:04,VALID,915.251,VALID,0,VALID,97.2519,VALID,0.107441,VALID,18.572,VALID,4,VALID,0.460938,
2010-12-27, 02:33:04,VALID,915.249,VALID,0,VALID,97.1833,VALID,0,VALID,18.572,VALID,4,VALID,0.742578,
2010-12-27, 02:34:04,VALID,915.246,VALID,0,VALID,97.1376,VALID,0,VALID,18.533,VALID,4,VALID,0.426562,
2010-12-27, 02:35:04,VALID,915.237,VALID,0,VALID,97.1833,VALID,0,VALID,18.4926,VALID,4,VALID,0.412891,
2010-12-27, 02:36:04,VALID,915.234,VALID,0,VALID,97.1604,VALID,0,VALID,18.533,VALID,4,VALID,0.585547,
2010-12-27, 02:37:04,VALID,915.242,VALID,0,VALID,97.1604,VALID,0,VALID,18.4731,VALID,4,VALID,0.803516,
2010-12-27, 02:38:04,VALID,915.275,VALID,0,VALID,97.1986,VALID,0.107441,VALID,18.494,VALID,4,VALID,0.85625,
2010-12-27, 02:39:04,VALID,915.249,VALID,0,VALID,97.2443,VALID,0,VALID,18.5135,VALID,4,VALID,0.423047,
2010-12-27, 02:40:04,VALID,915.271,VALID,0,VALID,97.1528,VALID,0,VALID,18.5135,VALID,4,VALID,0.960547,
2010-12-27, 02:41:04,VALID,915.236,VALID,0,VALID,97.1833,VALID,0,VALID,18.5135,VALID,4,VALID,0.634375,
2010-12-27, 02:42:04,VALID,915.251,VALID,0,VALID,97.0918,VALID,0,VALID,18.4745,VALID,4,VALID,1.11602,
2010-12-27, 02:43:04,VALID,915.25,VALID,0,VALID,96.9927,VALID,0,VALID,18.3965,VALID,4,VALID,1.2957,
2010-12-27, 02:44:04,VALID,915.227,VALID,0,VALID,97.0156,VALID,0,VALID,18.377,VALID,4,VALID,0.382813,
2010-12-27, 02:45:04,VALID,915.193,VALID,0,VALID,97.0156,VALID,0,VALID,18.377,VALID,4,VALID,0.515234,
2010-12-27, 02:46:04,VALID,915.183,VALID,0,VALID,97.0156,VALID,0.107441,VALID,18.377,VALID,4,VALID,0.774219,
2010-12-27, 02:47:04,VALID,915.179,VALID,0,VALID,97.1299,VALID,0,VALID,18.3965,VALID,4,VALID,0.488672,
2010-12-27, 02:48:04,VALID,915.147,VALID,0,VALID,97.0842,VALID,0,VALID,18.416,VALID,4,VALID,0.228125,
2010-12-27, 02:49:04,VALID,915.145,VALID,0,VALID,97.0461,VALID,0,VALID,18.3965,VALID,4,VALID,0.150781,
2010-12-27, 02:50:04,VALID,915.154,VALID,0,VALID,96.9775,VALID,0,VALID,18.377,VALID,4,VALID,0.342578,
2010-12-27, 02:51:04,VALID,915.135,VALID,0,VALID,96.9927,VALID,0,VALID,18.3575,VALID,4,VALID,0.219141,
2010-12-27, 02:52:04,VALID,915.111,VALID,0,VALID,96.9546,VALID,0,VALID,18.338,VALID,4,VALID,0.357031,
2010-12-27, 02:53:04,VALID,915.105,VALID,0,VALID,96.9546,VALID,0,VALID,18.338,VALID,4,VALID,0.520703,
2010-12-27, 02:54:04,VALID,915.096,VALID,0,VALID,96.9317,VALID,0,VALID,18.3394,VALID,4,VALID,0.791797,
2010-12-27, 02:55:04,VALID,915.114,VALID,0,VALID,96.9165,VALID,0.107441,VALID,18.299,VALID,4,VALID,0.742578,
2010-12-27, 02:56:04,VALID,915.082,VALID,0,VALID,96.9012,VALID,0,VALID,18.299,VALID,4,VALID,0.796875,
2010-12-27, 02:57:04,VALID,915.09,VALID,0,VALID,96.8784,VALID,0,VALID,18.2796,VALID,4,VALID,0.680469,
2010-12-27, 02:58:04,VALID,915.069,VALID,0,VALID,96.8784,VALID,0,VALID,18.2406,VALID,4,VALID,0.724609,
2010-12-27, 02:59:04,VALID,915.1,VALID,0,VALID,96.8631,VALID,0,VALID,18.2406,VALID,4,VALID,0.852734,
2010-12-27, 03:00:04,VALID,915.084,VALID,0,VALID,96.8326,VALID,0,VALID,18.2225,VALID,4,VALID,0.80625,
2010-12-27, 03:01:04,VALID,915.071,VALID,0,VALID,96.886,VALID,0,VALID,18.2225,VALID,4,VALID,0.564062,
2010-12-27, 03:02:04,VALID,915.083,VALID,0,VALID,96.8784,VALID,0,VALID,18.1821,VALID,4,VALID,0.765625,
2010-12-27, 03:03:04,VALID,915.076,VALID,0,VALID,96.8631,VALID,0,VALID,18.2225,VALID,4,VALID,0.809375,
2010-12-27, 03:04:04,VALID,915.094,VALID,0,VALID,96.8784,VALID,0,VALID,18.203,VALID,4,VALID,0.779297,
2010-12-27, 03:05:04,VALID,915.081,VALID,0,VALID,96.886,VALID,0,VALID,18.203,VALID,4,VALID,0.625391,
2010-12-27, 03:06:04,VALID,915.116,VALID,0,VALID,96.8479,VALID,0,VALID,18.1835,VALID,4,VALID,0.640625,
2010-12-27, 03:07:04,VALID,915.074,VALID,0,VALID,96.886,VALID,0,VALID,18.2016,VALID,4,VALID,0.469922,
2010-12-27, 03:08:04,VALID,915.068,VALID,0,VALID,96.8479,VALID,0,VALID,18.1835,VALID,4,VALID,0.483203,
2010-12-27, 03:09:04,VALID,915.08,VALID,0,VALID,96.8174,VALID,0,VALID,18.1626,VALID,4,VALID,0.519922,
2010-12-27, 03:10:04,VALID,915.094,VALID,0,VALID,96.8174,VALID,0,VALID,18.1835,VALID,4,VALID,0.623828,
2010-12-27, 03:11:04,VALID,915.081,VALID,0,VALID,96.8098,VALID,0,VALID,18.1835,VALID,4,VALID,0.582031,
2010-12-27, 03:12:04,VALID,915.053,VALID,0,VALID,96.8098,VALID,0,VALID,18.1835,VALID,4,VALID,0.378125,
2010-12-27, 03:13:04,VALID,915.092,VALID,0,VALID,96.7869,VALID,0,VALID,18.203,VALID,4,VALID,0.45,
2010-12-27, 03:14:04,VALID,915.04,VALID,0,VALID,96.7869,VALID,0,VALID,18.1835,VALID,4,VALID,0.375,
2010-12-27, 03:15:04,VALID,915.016,VALID,0,VALID,96.7716,VALID,0,VALID,18.203,VALID,4,VALID,0.369531,
2010-12-27, 03:16:04,VALID,915.018,VALID,0,VALID,96.7869,VALID,0,VALID,18.1835,VALID,4,VALID,0.127734,
2010-12-27, 03:17:04,VALID,915.048,VALID,0,VALID,96.764,VALID,0,VALID,18.1835,VALID,4,VALID,0,
2010-12-27, 03:18:04,VALID,915.017,VALID,0,VALID,96.764,VALID,0,VALID,18.2044,VALID,4,VALID,0,
2010-12-27, 03:19:04,VALID,915.053,VALID,0,VALID,96.7716,VALID,0,VALID,18.1626,VALID,4,VALID,0,
2010-12-27, 03:20:04,VALID,915.051,VALID,0,VALID,96.7564,VALID,0,VALID,18.203,VALID,4,VALID,0.0472656,
2010-12-27, 03:21:04,VALID,915.065,VALID,0,VALID,96.825,VALID,0,VALID,18.2225,VALID,4,VALID,0,
2010-12-27, 03:22:04,VALID,915.084,VALID,0,VALID,96.8479,VALID,0,VALID,18.2615,VALID,4,VALID,0,
2010-12-27, 03:23:04,VALID,915.105,VALID,0,VALID,96.8707,VALID,0,VALID,18.242,VALID,4,VALID,0,
2010-12-27, 03:24:04,VALID,915.153,VALID,0,VALID,96.8631,VALID,0,VALID,18.2406,VALID,4,VALID,0,
2010-12-27, 03:25:04,VALID,915.165,VALID,0,VALID,96.886,VALID,0,VALID,18.2601,VALID,4,VALID,0,
2010-12-27, 03:26:04,VALID,915.152,VALID,0,VALID,96.886,VALID,0,VALID,18.2809,VALID,4,VALID,0,
2010-12-27, 03:27:04,VALID,915.157,VALID,0,VALID,96.9012,VALID,0,VALID,18.2406,VALID,4,VALID,0,
2010-12-27, 03:28:04,VALID,915.172,VALID,0,VALID,96.8479,VALID,0,VALID,18.2615,VALID,4,VALID,0,
2010-12-27, 03:29:04,VALID,915.149,VALID,0,VALID,96.8174,VALID,0,VALID,18.242,VALID,4,VALID,0,
2010-12-27, 03:30:04,VALID,915.169,VALID,0,VALID,96.886,VALID,0,VALID,18.2016,VALID,4,VALID,0,
2010-12-27, 03:31:04,VALID,915.161,VALID,0,VALID,96.9317,VALID,0,VALID,18.2211,VALID,4,VALID,0,
2010-12-27, 03:32:04,VALID,915.157,VALID,0,VALID,96.9241,VALID,0,VALID,18.242,VALID,4,VALID,0,
2010-12-27, 03:33:04,VALID,915.149,VALID,0,VALID,96.8936,VALID,0,VALID,18.2225,VALID,4,VALID,0,
2010-12-27, 03:34:04,VALID,915.16,VALID,0,VALID,96.8631,VALID,0,VALID,18.203,VALID,4,VALID,0.281641,
2010-12-27, 03:35:04,VALID,915.17,VALID,0,VALID,96.8631,VALID,0,VALID,18.1835,VALID,4,VALID,0.458594,
2010-12-27, 03:36:04,VALID,915.209,VALID,0,VALID,96.8403,VALID,0,VALID,18.203,VALID,4,VALID,0.329688,
2010-12-27, 03:37:04,VALID,915.21,VALID,0,VALID,96.8326,VALID,0,VALID,18.2225,VALID,4,VALID,0.285547,
2010-12-27, 03:38:04,VALID,915.226,VALID,0,VALID,96.8403,VALID,0,VALID,18.2016,VALID,4,VALID,0.178516,
2010-12-27, 03:39:04,VALID,915.227,VALID,0,VALID,96.8326,VALID,0,VALID,18.2225,VALID,4,VALID,0.269531,
2010-12-27, 03:40:04,VALID,915.262,VALID,0,VALID,96.8403,VALID,0,VALID,18.242,VALID,4,VALID,0.319531,
2010-12-27, 03:41:04,VALID,915.258,VALID,0,VALID,96.8174,VALID,0,VALID,18.242,VALID,4,VALID,0.299219,
2010-12-27, 03:42:04,VALID,915.255,VALID,0,VALID,96.7945,VALID,0,VALID,18.2211,VALID,4,VALID,0.255078,
2010-12-27, 03:43:04,VALID,915.248,VALID,0,VALID,96.8174,VALID,0,VALID,18.2615,VALID,4,VALID,0.303906,
2010-12-27, 03:44:04,VALID,915.279,VALID,0,VALID,96.764,VALID,0,VALID,18.2615,VALID,4,VALID,0.371875,
2010-12-27, 03:45:04,VALID,915.292,VALID,0,VALID,96.764,VALID,0,VALID,18.242,VALID,4,VALID,0.348828,
2010-12-27, 03:46:04,VALID,915.303,VALID,0,VALID,96.7869,VALID,0,VALID,18.2211,VALID,4,VALID,0.363281,
2010-12-27, 03:47:04,VALID,915.32,VALID,0,VALID,96.7335,VALID,0,VALID,18.242,VALID,4,VALID,0.386328,